Location: Newark
(36.7000°N, 45.1333°E)
Time: 08:10:48
(UTC+00:00)

Hubble Space Telescope - Pass Details

Date: 02 February 2020
Orbit: 536 x 540 km, 28.5° (Epoch: 19 February)

Event Time Altitude Azimuth Distance (km) Brightness Sun altitude
Exits shadow 01:54:04 19° 168° (SSE) 1,312 2.8 -25.7°
Maximum altitude 01:54:06 19° 167° (SSE) 1,312 2.9 -25.7°
Drops below altitude 10° 01:57:01 10° 122° (ESE) 1,777 4.2 -25.1°
Sets 01:59:46 0° 103° (ESE) 2,669 5.7 -24.6°
